EW0408 Weather Reports


time (UTC)temp
C
wind
direction
speed
KPH
gust
KPH
rain 1hr
cm
rain 24hr
cm
rain mn
cm
humidity
%
barometer
mb
20260906123025 25 0 0.0 0.0 0.00 0.00 0.00 89 1014.2
20260906122004 25 0 0.0 0.0 0.00 0.00 0.00 90 1014.1
20260906121004 24 0 0.0 0.0 0.00 0.00 0.00 91 1014.1
20260906120004 24 0 0.0 0.0 0.00 0.00 0.00 92 1013.8
20260906115004 23 0 0.0 0.0 0.00 0.00 0.00 92 1013.7
20260906114025 23 0 0.0 0.0 0.00 0.00 0.00 92 1013.6
20260906113004 23 0 0.0 0.0 0.00 0.00 0.00 92 1013.6
20260906112004 23 0 0.0 0.0 0.00 0.00 0.00 92 1013.3
20260906111004 23 0 0.0 0.0 0.00 0.00 0.00 92 1013.2
20260906110004 23 0 0.0 0.0 0.00 0.00 0.00 92 1013.0
20260906105004 23 0 0.0 0.0 0.00 0.00 0.00 93 1012.9
20260906104004 23 0 0.0 0.0 0.00 0.00 0.00 93 1012.7
20260906103004 23 0 0.0 0.0 0.00 0.00 0.00 93 1012.5
20260906102004 23 0 0.0 0.0 0.00 0.00 0.00 93 1012.4
20260906101004 23 0 0.0 0.0 0.00 0.00 0.00 93 1012.2
20260906100004 23 0 0.0 0.0 0.00 0.00 0.00 93 1012.2
20260906095004 23 0 0.0 0.0 0.00 0.00 0.00 93 1011.9
20260906094004 23 0 0.0 0.0 0.00 0.00 0.00 93 1011.8
20260906093004 23 0 0.0 0.0 0.00 0.00 0.00 92 1011.8
20260906092004 23 0 0.0 0.0 0.00 0.00 0.00 92 1011.7
20260906091004 23 0 0.0 0.0 0.00 0.00 0.00 93 1011.6
20260906090025 23 0 0.0 0.0 0.00 0.00 0.00 93 1011.6
20260906085004 23 0 0.0 0.0 0.00 0.00 0.00 92 1011.7
20260906084004 23 0 0.0 0.0 0.00 0.00 0.00 92 1011.6
20260906083004 23 0 0.0 0.0 0.00 0.00 0.00 92 1011.6
20260906082004 23 0 0.0 0.0 0.00 0.00 0.00 92 1011.8
20260906081004 23 0 0.0 0.0 0.00 0.00 0.00 92 1011.6
20260906080004 23 0 0.0 0.0 0.00 0.00 0.00 92 1011.8
20260906075004 23 0 0.0 0.0 0.00 0.00 0.00 92 1011.9
20260906074004 23 0 0.0 0.0 0.00 0.00 0.00 92 1011.9
20260906073025 23 0 0.0 0.0 0.00 0.00 0.00 92 1011.9
20260906072004 23 0 0.0 0.0 0.00 0.00 0.00 91 1012.0
20260906071025 23 0 0.0 0.0 0.00 0.00 0.00 91 1012.2
20260906070004 24 0 0.0 0.0 0.00 0.00 0.00 91 1012.5
20260906065003 24 0 0.0 0.0 0.00 0.00 0.00 91 1012.6
20260906064004 24 0 0.0 0.0 0.00 0.00 0.00 91 1012.7
20260906063025 24 0 0.0 0.0 0.00 0.00 0.00 91 1012.8
20260906062004 24 0 0.0 0.0 0.00 0.00 0.00 91 1013.0
20260906061025 24 0 0.0 0.0 0.00 0.00 0.00 91 1013.2
20260906060004 24 0 0.0 0.0 0.00 0.00 0.00 91 1013.3
20260906055003 24 0 0.0 0.0 0.00 0.00 0.00 91 1013.5
20260906054004 24 0 0.0 0.0 0.00 0.00 0.00 90 1013.4
20260906053004 24 0 0.0 0.0 0.00 0.00 0.00 90 1013.6
20260906052004 24 0 0.0 0.0 0.00 0.00 0.00 90 1013.5
20260906051004 24 0 0.0 0.0 0.00 0.00 0.00 90 1013.4
20260906050004 24 0 0.0 0.0 0.00 0.00 0.00 89 1013.5
20260906045004 24 0 0.0 0.0 0.00 0.00 0.00 89 1013.4
20260906044004 24 0 0.0 0.0 0.00 0.00 0.00 89 1013.6
20260906043004 24 0 0.0 0.0 0.00 0.00 0.00 89 1013.4
20260906042004 24 0 0.0 0.0 0.00 0.00 0.00 89 1013.5
20260906041004 24 0 0.0 0.0 0.00 0.00 0.00 89 1013.5
20260906040004 24 0 0.0 0.0 0.00 0.00 0.00 88 1013.5
20260906035025 24 0 0.0 0.0 0.00 0.00 0.00 88 1013.6
20260906034004 24 0 0.0 0.0 0.00 0.00 0.00 87 1013.7
20260906033025 24 0 0.0 0.0 0.00 0.00 0.00 87 1013.8
20260906032004 24 0 0.0 0.0 0.00 0.00 0.00 86 1013.8
20260906031004 24 0 0.0 0.0 0.00 0.00 0.00 86 1013.7
20260906030004 24 0 0.0 0.0 0.00 0.00 0.00 86 1013.8
20260906025004 25 0 0.0 0.0 0.00 0.00 0.00 86 1014.0
20260906024004 25 0 0.0 0.0 0.00 0.00 0.00 87 1014.1
20260906023004 25 0 0.0 0.0 0.00 0.00 0.00 87 1014.4
20260906022004 25 0 0.0 0.0 0.00 0.00 0.00 87 1014.2
20260906021003 25 0 0.0 0.0 0.00 0.00 0.00 87 1014.4
20260906020004 25 0 0.0 0.0 0.00 0.00 0.00 87 1014.3
20260906015004 25 0 0.0 0.0 0.00 0.00 0.00 87 1014.3
20260906014004 25 0 0.0 0.0 0.00 0.00 0.00 87 1014.2
20260906013003 25 0 0.0 0.0 0.00 0.00 0.00 87 1014.2
20260906012003 26 0 0.0 0.0 0.00 0.00 0.00 86 1014.2
20260906011004 26 0 0.0 0.0 0.00 0.00 0.00 86 1014.3
20260906010003 26 0 0.0 0.0 0.00 0.00 0.00 85 1014.1
20260906005024 27 0 0.0 0.0 0.00 0.00 0.00 83 1013.9
20260906004004 27 157 0.0 1.6 0.00 0.03 0.00 81 1013.8
20260906003003 28 0 0.0 0.0 0.00 0.03 0.00 78 1013.6
20260906002003 28 53 1.6 11.3 0.00 0.03 0.00 78 1013.6
20260906001004 28 51 4.8 12.9 0.00 0.03 0.00 77 1013.4
20260906000003 29 47 8.0 14.5 0.00 0.03 0.00 77 1013.4
20260905235003 29 37 8.0 16.1 0.00 0.03 0.00 76 1013.6
20260905234024 30 22 6.4 14.5 0.00 0.03 0.00 74 1013.3
20260905233004 30 23 3.2 14.5 0.00 0.03 0.00 73 1013.0
20260905232003 30 16 1.6 12.9 0.00 0.03 0.00 70 1012.9
20260905231003 30 348 0.0 1.6 0.00 0.03 0.00 69 1012.8
20260905230004 31 359 3.2 12.9 0.00 0.03 0.00 68 1012.7
20260905225003 31 355 1.6 11.3 0.00 0.03 0.00 65 1012.8
20260905224004 32 259 1.6 6.4 0.00 0.03 0.00 66 1012.7
20260905223003 32 264 1.6 8.0 0.00 0.03 0.00 65 1012.7
20260905222003 32 278 4.8 16.1 0.00 0.03 0.00 64 1012.4
20260905221003 32 270 4.8 12.9 0.00 0.03 0.00 64 1012.6
20260905220024 32 283 3.2 16.1 0.00 0.03 0.00 65 1012.5
20260905215003 32 288 4.8 16.1 0.00 0.03 0.00 64 1012.5
20260905214004 32 294 4.8 17.7 0.00 0.03 0.00 66 1012.3
20260905213004 31 305 4.8 16.1 0.00 0.03 0.00 67 1012.4
20260905212024 31 301 8.0 24.1 0.00 0.03 0.00 67 1012.6
20260905211003 32 320 3.2 20.9 0.00 0.03 0.00 67 1012.4
20260905210003 33 337 1.6 19.3 0.00 0.03 0.00 65 1012.2
20260905205024 33 0 0.0 0.0 0.00 0.03 0.00 63 1012.1
20260905204003 33 0 0.0 0.0 0.00 0.03 0.00 63 1012.1
20260905203024 33 0 0.0 0.0 0.00 0.03 0.00 63 1012.2
20260905202003 32 244 0.0 1.6 0.00 0.03 0.00 65 1012.3
20260905201003 32 265 0.0 1.6 0.00 0.03 0.00 65 1012.3
20260905200004 33 280 1.6 16.1 0.00 0.03 0.00 65 1012.5
20260905195004 33 263 3.2 24.1 0.00 0.03 0.00 65 1012.5
20260905194003 33 50 0.0 1.6 0.00 0.03 0.00 65 1012.4
20260905193003 33 283 6.4 25.7 0.00 0.03 0.00 66 1012.6
20260905192003 33 251 0.0 16.1 0.00 0.03 0.00 66 1012.9
20260905191003 33 0 0.0 0.0 0.00 0.03 0.00 66 1012.8
20260905190003 34 242 0.0 1.6 0.00 0.03 0.00 62 1012.9
20260905185003 34 0 0.0 0.0 0.00 0.03 0.00 65 1013.0
20260905184003 34 0 0.0 0.0 0.00 0.03 0.00 63 1013.0
20260905183003 34 0 0.0 0.0 0.00 0.03 0.00 63 1013.0
20260905182004 33 0 0.0 0.0 0.00 0.03 0.00 64 1013.2
20260905181003 33 0 0.0 0.0 0.00 0.03 0.00 64 1013.3
20260905180003 33 0 0.0 0.0 0.00 0.03 0.00 64 1013.4
20260905175003 33 0 0.0 0.0 0.00 0.03 0.00 65 1013.5
20260905174003 33 0 0.0 0.0 0.00 0.03 0.00 66 1013.6
20260905173004 32 261 4.8 16.1 0.00 0.03 0.00 67 1013.8
20260905172003 32 264 3.2 17.7 0.00 0.03 0.00 67 1014.0
20260905171003 32 0 0.0 0.0 0.00 0.08 0.00 67 1014.2
20260905170003 33 0 0.0 0.0 0.00 0.08 0.00 68 1014.2
20260905165003 32 0 0.0 0.0 0.00 0.08 0.00 69 1014.6
20260905164003 32 0 0.0 0.0 0.00 0.08 0.00 69 1014.7
20260905163003 32 0 0.0 0.0 0.00 0.08 0.00 69 1014.7
20260905162003 32 0 0.0 0.0 0.00 0.08 0.00 73 1014.8
20260905161004 32 0 0.0 0.0 0.00 0.08 0.00 70 1015.2
20260905160003 32 0 0.0 0.0 0.00 0.08 0.00 75 1015.3
20260905155024 31 0 0.0 0.0 0.00 0.08 0.00 76 1015.3
20260905154003 31 0 0.0 0.0 0.00 0.08 0.00 76 1015.3
20260905153004 31 0 0.0 0.0 0.00 0.08 0.00 76 1015.2
20260905152003 31 0 0.0 0.0 0.00 0.08 0.00 76 1015.4
20260905151003 31 0 0.0 0.0 0.00 0.08 0.00 78 1015.4
20260905150024 31 0 0.0 0.0 0.00 0.08 0.00 79 1015.4
20260905145003 31 0 0.0 0.0 0.00 0.08 0.00 78 1015.3
20260905144024 30 0 0.0 0.0 0.00 0.08 0.00 79 1015.4
20260905143003 31 0 0.0 0.0 0.00 0.08 0.00 77 1015.3
20260905142003 31 0 0.0 0.0 0.00 0.08 0.00 80 1015.2
20260905141003 30 0 0.0 0.0 0.00 0.08 0.00 79 1015.2
20260905140004 30 0 0.0 0.0 0.00 0.08 0.00 78 1015.2
20260905135003 30 0 0.0 0.0 0.00 0.08 0.00 79 1015.3
20260905134004 29 0 0.0 0.0 0.00 0.08 0.00 82 1015.5
20260905133004 28 0 0.0 0.0 0.00 0.08 0.00 83 1015.5
20260905132004 27 0 0.0 0.0 0.00 0.08 0.00 84 1015.5
20260905131003 27 0 0.0 0.0 0.00 0.08 0.00 84 1015.4
20260905130004 27 0 0.0 0.0 0.00 0.08 0.00 85 1015.2
20260905125003 27 0 0.0 0.0 0.00 0.08 0.00 86 1015.2
20260905124003 26 0 0.0 0.0 0.00 0.08 0.00 88 1015.3